SCP
0 0 0 0 0 0 0 0 0 0 0 0 0 0 0 0 0 0 0 0 0 0 0 0 0 0 0 0 0 0 0 0 0 0 0 0 0 0 0 0 0 0 0
0 0 0 0 0 0 0 0 0 0 0 0 0 0 0 0 0 0 0 0 0 0 0 0 0 0 0 0 0 0 0 0 0 0 0 0 0 0 0 0 0 0 0
0 0 0 0 0 0 0 0 0 0 0 0 0 0 0 0 0 0 0 0 0 0 0 0 0 0 0 0 0 0 0 0 0 0 0 0 0 0 0 0 0 0 0
0 0 0 0 0 0 0 0 0 0 0 0 0 0 0 0 0 0 0 0 0 0 0 0 0 0 0 0 0 0 0 0 0 0 0 0 0 0 0 0 0 0 0
0 0 0 0 0 0 0 0 0 0 0 0 0 0 0 0 0 0 0 0 0 0 0 0 0 0 0 0 0 0 0 0 0 0 0 0 0 0 0 0 0 0 0
0 0 0 0 0 0 0 0 0 0 0 0 0 0 0 0 0 0 0 0 0 0 0 0 0 0 0 0 0 0 0 0 0 0 0 0 0 0 0 0 0 0 0
0 0 0 0 0 0 0 0 0 0 0 0 0 0 0 0 0 0 0 0 0 0 0 0 0 0 0 0 0 0 0 0 0 0 0 0 0 0 0 0 0 0 0
0 0 0 0 0 0 0 0 0 0 0 0 0 0 0 0 0 0 0 0 0 0 0 0 0 0 0 0 0 0 0 0 0 0 0 0 0 0 0 0 0 0 0
0 0 0 0 0 0 0 0 0 0 0 0 0 0 0 0 0 0 0 0 0 0 0 0 0 0 0 0 0 0 0 0 0 0 0 0 0 0 0 0 0 0 0
0 0 0 0 0 0 0 0 0 0 0 0 0 0 0 0 0 0 0 0 0 0 0 0 0 0 0 0 0 0 0 0 0 0 0 0 0 0 0 0 0 0 0
0 0 0 0 0 0 0 0 0 0 0 0 0 0 0 0 0 0 0 0 0 0 0 0 0 0 0 0 0 0 0 0 0 0 0 0 0 0 0 0 0 0 0
0 0 0 0 0 0 0 0 0 0 0 0 0 0 0 0 0 0 0 0 0 0 0 0 0 0 0 0 0 0 0 0 0 0 0 0 0 0 0 0 0 0 0
0 0 0 0 0 0 0 0 0 0 0 0 0 0 0 0 0 0 0 0 0 0 0 0 0 0 0 0 0 0 0 0 0 0 0 0 0 0 0 0 0 0 0
0 0 0 0 0 0 0 0 0 0 0 0 0 0 0 0 0 0 0 0 0 0 0 0 0 0 0 0 0 0 0 0 0 0 0 0 0 0 0 0 0 0 0
0 0 0 0 0 0 0 0 0 0 0 0 0 0 0 0 0 0 0 0 0 0 0 0 0 0 0 0 0 0 0 0 0 0 0 0 0 0 0 0 0 0 0
0 0 0 0 0 0 0 0 0 0 0 0 0 0 0 0 0 0 0 0 0 0 0 0 0 0 0 0 0 0 0 0 0 0 0 0 0 0 0 0 0 0 0
0 0 0 0 0 0 0 0 0 0 0 0 0 0 0 0 0 0 0 0 0 0 0 0 0 0 0 0 0 0 0 0 0 0 0 0 0 0 0 0 0 0 0
0 0 0 0 0 0 0 0 0 0 0 0 0 0 0 0 0 0 0 0 0 0 0 0 0 0 0 0 0 0 0 0 0 0 0 0 0 0 0 0 0 0 0
0 0 0 0 0 0 0 0 0 0 0 0 0 0 0 0 0 0 0 0 0 0 0 0 0 0 0 0 0 0 0 0 0 0 0 0 0 0 0 0 0 0 0
0 0 0 0 0 0 0 0 0 0 0 0 0 0 0 0 0 0 0 0 0 0 0 0 0 0 0 0 0 0 0 0 0 0 0 0 0 0 0 0 0 0 0
0 0 0 0 0 0 0 0 0 0 0 0 0 0 0 0 0 0 0 0 0 0 0 0 0 0 0 0 0 0 0 0 0 0 0 0 0 0 0 0 0 0 0
0 0 0 0 0 0 0 0 0 0 0 0 0 0 0 0 0 0 0 0 0 0 0 0 0 0 0 0 0 0 0 0 0 0 0 0 0 0 0 0 0 0 0
0 0 0 0 0 0 0 0 0 0 0 0 0 0 0 0 0 0 0 0 0 0 0 0 0 0 0 0 0 0 0 0 0 0 0 0 0 0 0 0 0 0 0
0 0 0 0 0 0 0 0 0 0 0 0 0 0 0 0 0 0 0 0 0 0 0 0 0 0 0 0 0 0 0 0 0 0 0 0 0 0 0 0 0 0 0
0 0 0 0 0 0 0 0 0 0 0 0 0 0 0 0 0 0 0 0 0 0 0 0 0 0 0 0 0 0 0 0 0 0 0 0 0 0 0 0 0 0 0
0 0 0 0 0 0 0 0 0 0 0 0 0 0 0 0 0 0 0 0 0 0 0 0 0 0 0 0 0 0 0 0 0 0 0 0 0 0 0 0 0 0 0
Wind_Speed_500mb
60 54 51 52 50 48 48 48 46 47 48 46 43 40 36 32 31 31 31 30 26 25 22 15 9 9 9 7 8 7 7 5 4 8 13 17 19 19 21 24 27 30 32
62 55 54 54 54 53 52 53 56 54 53 48 45 42 42 45 41 34 32 28 22 20 15 8 6 5 5 7 8 8 7 6 7 5 10 9 13 11 21 24 27 34 35
65 61 58 53 54 60 60 60 62 61 60 58 57 56 50 42 34 32 30 25 20 16 12 7 4 3 4 6 8 8 5 3 3 6 5 6 5 23 15 23 26 33 34
64 61 59 60 60 61 61 64 64 64 64 64 65 58 48 29 36 28 29 22 19 16 12 8 5 4 6 9 8 4 3 2 2 3 5 10 17 11 14 22 33 34 39
59 60 59 56 56 58 66 70 68 67 66 65 62 57 47 36 36 32 29 24 22 17 13 10 8 5 7 7 4 3 4 5 6 7 9 12 15 17 16 18 27 34 34
61 58 56 56 56 55 55 63 68 65 64 62 61 56 47 40 38 33 29 27 23 18 16 13 9 7 6 3 2 3 7 9 10 12 14 14 14 18 19 25 30 30 32
61 62 64 66 62 56 53 54 58 60 60 60 56 50 43 41 34 30 28 27 23 21 19 15 11 8 6 4 2 6 8 12 15 16 19 21 22 23 24 25 28 29 33
41 48 54 55 52 50 49 50 54 57 56 55 51 46 42 37 34 32 31 29 27 25 21 18 14 10 8 3 3 5 9 13 17 20 21 23 24 24 23 23 25 29 28
32 36 41 45 47 49 49 51 53 54 53 48 45 42 39 38 36 35 34 32 30 28 25 19 15 12 8 4 4 8 11 14 17 20 24 24 24 24 25 25 26 23 17
30 32 39 45 49 48 48 50 52 51 48 45 41 38 37 38 38 37 35 34 35 31 26 21 16 14 10 7 4 7 12 15 20 22 23 24 25 25 25 27 25 23 21
29 27 32 39 45 49 51 51 52 49 45 42 39 38 38 40 39 38 37 37 35 30 26 20 18 15 11 6 5 10 13 16 18 20 23 25 27 27 28 28 25 24 22
34 31 29 33 41 48 51 50 46 43 41 39 38 38 39 39 39 39 39 39 34 30 25 21 21 17 11 6 9 11 14 16 18 21 24 25 27 28 30 30 27 25 23
35 33 34 34 38 42 45 43 42 39 39 39 39 39 40 39 40 41 43 40 33 29 25 24 22 17 11 10 12 12 15 17 21 25 27 27 27 29 30 29 28 25 23
36 35 34 35 37 40 39 40 39 40 41 40 40 39 41 41 42 44 42 36 32 29 27 26 26 21 17 14 15 14 16 20 25 28 30 30 29 32 33 29 27 24 23
35 35 35 36 38 39 39 39 40 41 41 42 42 42 42 41 44 45 42 37 32 30 30 31 30 27 23 17 18 18 17 21 27 30 33 33 34 36 36 31 27 24 22
31 33 35 36 37 36 36 36 36 37 41 42 42 43 44 46 49 48 42 33 32 32 33 34 36 31 27 23 24 22 20 23 27 32 36 37 38 36 34 30 25 25 24
29 33 35 33 33 35 33 34 32 36 41 42 44 45 48 51 51 46 40 38 33 35 36 37 39 38 36 33 31 27 26 27 29 34 39 41 41 39 36 32 31 27 24
38 33 28 31 30 30 33 34 36 37 38 40 43 48 51 52 50 46 43 38 34 36 36 40 42 44 46 43 39 36 35 35 33 36 41 43 43 41 38 36 33 31 28
36 32 18 28 26 29 36 38 36 37 40 44 47 49 50 52 51 48 41 33 35 37 39 41 46 52 52 53 50 48 45 45 39 39 42 45 46 45 43 40 35 34 32
42 46 39 31 33 30 35 39 38 38 42 42 44 46 50 53 51 43 36 34 37 37 40 46 51 54 57 61 60 60 55 52 46 43 46 46 46 49 47 45 38 36 32
44 48 50 44 48 43 43 40 38 38 34 35 38 43 48 51 47 43 37 39 43 44 46 52 54 58 60 63 67 67 63 54 52 49 49 45 47 49 50 50 45 37 39
25 35 43 42 37 39 37 36 31 23 28 33 35 35 39 41 41 41 42 46 50 53 55 59 59 61 63 65 69 70 65 60 59 53 51 47 49 51 53 52 49 45 42
21 14 29 40 33 38 38 32 25 25 30 29 28 30 32 33 36 40 44 47 50 56 57 61 60 61 60 62 66 64 64 67 68 52 55 54 53 52 55 55 53 47 44
19 19 23 32 40 41 36 31 23 22 24 23 22 22 24 26 30 35 38 41 43 48 51 54 56 53 50 51 54 58 59 59 67 60 58 59 54 48 50 52 58 58 47
25 29 30 36 39 36 31 26 27 25 21 19 17 18 19 22 25 28 32 38 42 46 48 47 48 47 48 45 47 51 55 55 57 63 62 66 67 64 58 58 60 59 54
32 35 37 35 35 32 28 25 21 18 16 14 14 16 20 26 32 35 38 43 46 47 48 48 49 47 49 49 48 50 55 56 58 66 72 74 72 70 69 64 62 60 57
Wind_Direction_500mb
215 214 215 219 217 215 216 219 219 219 221 220 223 230 240 252 254 263 267 279 285 298 308 311 326 342 347 347 354 356 352 7 55 357 327 320 317 314 307 302 303 308 313
221 220 219 221 222 223 221 221 223 226 228 229 234 238 245 246 251 253 263 269 278 292 295 297 315 331 349 358 357 1 0 335 330 323 315 308 311 305 307 305 317 328 335
222 223 222 223 225 226 225 225 228 230 232 234 233 234 242 248 262 254 261 261 270 271 267 264 266 295 330 338 340 341 343 327 317 319 292 310 294 314 324 326 336 335 333
225 227 228 229 231 232 230 230 231 233 234 237 236 240 246 247 255 248 252 249 251 248 239 236 240 279 315 320 320 333 357 17 15 333 320 308 306 316 307 323 324 326 328
225 227 228 232 234 234 232 230 230 231 233 232 235 235 234 250 252 245 241 238 239 231 223 219 234 270 298 305 327 23 42 41 29 18 357 339 332 321 307 305 319 327 329
227 228 230 230 232 232 231 228 226 226 225 224 226 231 237 252 242 240 237 235 229 221 211 217 230 256 274 286 292 15 25 19 13 8 358 345 335 327 329 322 324 328 329
230 230 231 230 228 227 224 219 218 216 215 218 222 230 240 242 236 236 235 230 223 212 207 214 229 242 243 240 330 19 7 7 4 355 345 347 349 343 339 336 332 329 329
220 225 226 223 220 215 212 209 208 210 213 218 222 230 233 232 228 226 223 218 211 205 210 215 222 226 225 237 326 348 355 354 353 352 351 347 344 341 336 337 337 336 324
217 217 211 208 206 206 206 207 208 210 218 221 224 227 229 226 224 221 214 209 205 206 211 215 218 216 219 244 313 343 344 347 349 348 348 341 338 337 336 332 331 331 319
206 206 204 203 202 203 205 207 210 216 221 226 228 228 227 223 217 214 214 207 205 208 211 214 212 210 219 244 292 329 334 341 346 341 337 336 332 331 330 329 325 319 315
199 195 198 201 204 205 209 212 215 219 223 226 225 224 222 216 212 211 207 205 208 211 213 214 211 211 225 259 302 316 323 332 336 330 334 331 326 326 324 321 317 311 309
195 192 197 204 206 210 214 216 218 221 222 222 223 221 215 212 211 210 207 207 210 214 217 216 214 218 232 267 293 299 314 322 330 330 323 320 320 321 322 319 310 306 307
198 200 201 207 212 216 216 216 217 219 221 222 222 218 212 209 209 208 208 210 214 220 222 220 218 226 245 264 275 290 306 320 323 318 313 315 314 314 316 312 307 306 303
211 212 214 214 213 215 216 217 218 221 223 223 219 211 210 207 208 208 209 213 220 226 228 225 224 228 240 253 271 283 303 316 317 311 307 309 311 310 311 308 307 307 300
216 217 215 213 214 216 217 218 218 219 219 215 209 206 207 207 208 210 212 217 226 230 233 231 230 231 236 250 261 277 295 309 310 305 303 303 305 303 306 306 303 301 294
216 218 217 215 218 219 219 217 213 209 209 205 205 207 207 208 209 211 216 224 234 241 241 238 235 237 242 247 254 268 287 295 300 302 301 300 298 296 300 302 298 296 291
222 222 221 221 225 225 218 218 210 207 209 207 207 209 210 210 211 215 224 231 236 245 247 245 244 243 245 247 253 264 278 286 297 300 300 298 293 292 295 297 298 293 283
235 226 226 227 226 221 218 213 209 212 215 215 214 215 215 214 215 220 230 237 246 254 257 255 251 248 247 252 256 263 273 280 288 293 295 294 290 287 289 290 294 290 282
264 239 237 238 229 221 217 214 210 213 220 221 221 221 220 218 222 227 236 248 256 258 262 262 257 254 251 253 257 262 268 274 280 286 291 292 289 284 283 282 287 285 278
242 229 253 231 209 221 220 214 215 219 227 227 225 223 223 223 226 236 244 251 255 262 264 265 263 259 254 254 257 263 266 271 279 283 286 289 289 282 280 281 281 280 274
236 235 236 231 233 234 223 213 215 223 232 231 227 223 223 224 229 238 244 253 259 261 265 266 265 262 258 256 259 264 268 275 278 280 284 286 283 277 274 275 279 276 266
234 235 231 229 225 215 203 202 209 222 225 225 228 226 225 227 234 242 247 253 260 267 270 270 270 265 261 257 259 263 273 279 279 284 284 283 276 273 272 268 275 274 268
202 197 205 200 195 183 180 184 184 201 207 209 208 212 217 223 234 244 254 261 267 271 272 274 274 271 268 267 266 269 273 279 282 285 283 281 277 270 266 268 272 270 272
181 175 165 174 170 163 166 168 174 190 191 191 186 200 218 231 242 251 258 264 267 271 275 277 279 281 278 273 271 274 274 276 278 283 283 284 281 272 264 259 260 268 268
147 149 151 153 154 151 154 161 173 176 179 191 201 217 228 239 249 257 266 271 272 275 278 279 277 275 273 274 269 269 272 275 276 275 274 270 271 271 265 260 260 265 267
137 139 142 148 146 145 151 154 161 166 178 191 217 238 253 263 269 272 274 277 279 279 279 278 277 276 276 277 275 274 274 274 271 267 269 271 269 266 268 265 263 263 268
Wind_Speed_850mb
60 54 51 52 50 48 48 48 46 47 48 46 43 40 36 32 31 31 31 30 26 25 22 15 9 9 9 7 8 7 7 5 4 8 13 17 19 19 21 24 27 30 32
62 55 54 54 54 53 52 53 56 54 53 48 45 42 42 45 41 34 32 28 22 20 15 8 6 5 5 7 8 8 7 6 7 5 10 9 13 11 21 24 27 34 35
65 61 58 53 54 60 60 60 62 61 60 58 57 56 50 42 34 32 30 25 20 16 12 7 4 3 4 6 8 8 5 3 3 6 5 6 5 23 15 23 26 33 34
64 61 59 60 60 61 61 64 64 64 64 64 65 58 48 29 36 28 29 22 19 16 12 8 5 4 6 9 8 4 3 2 2 3 5 10 17 11 14 22 33 34 39
59 60 59 56 56 58 66 70 68 67 66 65 62 57 47 36 36 32 29 24 22 17 13 10 8 5 7 7 4 3 4 5 6 7 9 12 15 17 16 18 27 34 34
61 58 56 56 56 55 55 63 68 65 64 62 61 56 47 40 38 33 29 27 23 18 16 13 9 7 6 3 2 3 7 9 10 12 14 14 14 18 19 25 30 30 32
61 62 64 66 62 56 53 54 58 60 60 60 56 50 43 41 34 30 28 27 23 21 19 15 11 8 6 4 2 6 8 12 15 16 19 21 22 23 24 25 28 29 33
41 48 54 55 52 50 49 50 54 57 56 55 51 46 42 37 34 32 31 29 27 25 21 18 14 10 8 3 3 5 9 13 17 20 21 23 24 24 23 23 25 29 28
32 36 41 45 47 49 49 51 53 54 53 48 45 42 39 38 36 35 34 32 30 28 25 19 15 12 8 4 4 8 11 14 17 20 24 24 24 24 25 25 26 23 17
30 32 39 45 49 48 48 50 52 51 48 45 41 38 37 38 38 37 35 34 35 31 26 21 16 14 10 7 4 7 12 15 20 22 23 24 25 25 25 27 25 23 21
29 27 32 39 45 49 51 51 52 49 45 42 39 38 38 40 39 38 37 37 35 30 26 20 18 15 11 6 5 10 13 16 18 20 23 25 27 27 28 28 25 24 22
34 31 29 33 41 48 51 50 46 43 41 39 38 38 39 39 39 39 39 39 34 30 25 21 21 17 11 6 9 11 14 16 18 21 24 25 27 28 30 30 27 25 23
35 33 34 34 38 42 45 43 42 39 39 39 39 39 40 39 40 41 43 40 33 29 25 24 22 17 11 10 12 12 15 17 21 25 27 27 27 29 30 29 28 25 23
36 35 34 35 37 40 39 40 39 40 41 40 40 39 41 41 42 44 42 36 32 29 27 26 26 21 17 14 15 14 16 20 25 28 30 30 29 32 33 29 27 24 23
35 35 35 36 38 39 39 39 40 41 41 42 42 42 42 41 44 45 42 37 32 30 30 31 30 27 23 17 18 18 17 21 27 30 33 33 34 36 36 31 27 24 22
31 33 35 36 37 36 36 36 36 37 41 42 42 43 44 46 49 48 42 33 32 32 33 34 36 31 27 23 24 22 20 23 27 32 36 37 38 36 34 30 25 25 24
29 33 35 33 33 35 33 34 32 36 41 42 44 45 48 51 51 46 40 38 33 35 36 37 39 38 36 33 31 27 26 27 29 34 39 41 41 39 36 32 31 27 24
38 33 28 31 30 30 33 34 36 37 38 40 43 48 51 52 50 46 43 38 34 36 36 40 42 44 46 43 39 36 35 35 33 36 41 43 43 41 38 36 33 31 28
36 32 18 28 26 29 36 38 36 37 40 44 47 49 50 52 51 48 41 33 35 37 39 41 46 52 52 53 50 48 45 45 39 39 42 45 46 45 43 40 35 34 32
42 46 39 31 33 30 35 39 38 38 42 42 44 46 50 53 51 43 36 34 37 37 40 46 51 54 57 61 60 60 55 52 46 43 46 46 46 49 47 45 38 36 32
44 48 50 44 48 43 43 40 38 38 34 35 38 43 48 51 47 43 37 39 43 44 46 52 54 58 60 63 67 67 63 54 52 49 49 45 47 49 50 50 45 37 39
25 35 43 42 37 39 37 36 31 23 28 33 35 35 39 41 41 41 42 46 50 53 55 59 59 61 63 65 69 70 65 60 59 53 51 47 49 51 53 52 49 45 42
21 14 29 40 33 38 38 32 25 25 30 29 28 30 32 33 36 40 44 47 50 56 57 61 60 61 60 62 66 64 64 67 68 52 55 54 53 52 55 55 53 47 44
19 19 23 32 40 41 36 31 23 22 24 23 22 22 24 26 30 35 38 41 43 48 51 54 56 53 50 51 54 58 59 59 67 60 58 59 54 48 50 52 58 58 47
25 29 30 36 39 36 31 26 27 25 21 19 17 18 19 22 25 28 32 38 42 46 48 47 48 47 48 45 47 51 55 55 57 63 62 66 67 64 58 58 60 59 54
32 35 37 35 35 32 28 25 21 18 16 14 14 16 20 26 32 35 38 43 46 47 48 48 49 47 49 49 48 50 55 56 58 66 72 74 72 70 69 64 62 60 57
Wind_Direction_850mb
215 214 215 219 217 215 216 219 219 219 221 220 223 230 240 252 254 263 267 279 285 298 308 311 326 342 347 347 354 356 352 7 55 357 327 320 317 314 307 302 303 308 313
221 220 219 221 222 223 221 221 223 226 228 229 234 238 245 246 251 253 263 269 278 292 295 297 315 331 349 358 357 1 0 335 330 323 315 308 311 305 307 305 317 328 335
222 223 222 223 225 226 225 225 228 230 232 234 233 234 242 248 262 254 261 261 270 271 267 264 266 295 330 338 340 341 343 327 317 319 292 310 294 314 324 326 336 335 333
225 227 228 229 231 232 230 230 231 233 234 237 236 240 246 247 255 248 252 249 251 248 239 236 240 279 315 320 320 333 357 17 15 333 320 308 306 316 307 323 324 326 328
225 227 228 232 234 234 232 230 230 231 233 232 235 235 234 250 252 245 241 238 239 231 223 219 234 270 298 305 327 23 42 41 29 18 357 339 332 321 307 305 319 327 329
227 228 230 230 232 232 231 228 226 226 225 224 226 231 237 252 242 240 237 235 229 221 211 217 230 256 274 286 292 15 25 19 13 8 358 345 335 327 329 322 324 328 329
230 230 231 230 228 227 224 219 218 216 215 218 222 230 240 242 236 236 235 230 223 212 207 214 229 242 243 240 330 19 7 7 4 355 345 347 349 343 339 336 332 329 329
220 225 226 223 220 215 212 209 208 210 213 218 222 230 233 232 228 226 223 218 211 205 210 215 222 226 225 237 326 348 355 354 353 352 351 347 344 341 336 337 337 336 324
217 217 211 208 206 206 206 207 208 210 218 221 224 227 229 226 224 221 214 209 205 206 211 215 218 216 219 244 313 343 344 347 349 348 348 341 338 337 336 332 331 331 319
206 206 204 203 202 203 205 207 210 216 221 226 228 228 227 223 217 214 214 207 205 208 211 214 212 210 219 244 292 329 334 341 346 341 337 336 332 331 330 329 325 319 315
199 195 198 201 204 205 209 212 215 219 223 226 225 224 222 216 212 211 207 205 208 211 213 214 211 211 225 259 302 316 323 332 336 330 334 331 326 326 324 321 317 311 309
195 192 197 204 206 210 214 216 218 221 222 222 223 221 215 212 211 210 207 207 210 214 217 216 214 218 232 267 293 299 314 322 330 330 323 320 320 321 322 319 310 306 307
198 200 201 207 212 216 216 216 217 219 221 222 222 218 212 209 209 208 208 210 214 220 222 220 218 226 245 264 275 290 306 320 323 318 313 315 314 314 316 312 307 306 303
211 212 214 214 213 215 216 217 218 221 223 223 219 211 210 207 208 208 209 213 220 226 228 225 224 228 240 253 271 283 303 316 317 311 307 309 311 310 311 308 307 307 300
216 217 215 213 214 216 217 218 218 219 219 215 209 206 207 207 208 210 212 217 226 230 233 231 230 231 236 250 261 277 295 309 310 305 303 303 305 303 306 306 303 301 294
216 218 217 215 218 219 219 217 213 209 209 205 205 207 207 208 209 211 216 224 234 241 241 238 235 237 242 247 254 268 287 295 300 302 301 300 298 296 300 302 298 296 291
222 222 221 221 225 225 218 218 210 207 209 207 207 209 210 210 211 215 224 231 236 245 247 245 244 243 245 247 253 264 278 286 297 300 300 298 293 292 295 297 298 293 283
235 226 226 227 226 221 218 213 209 212 215 215 214 215 215 214 215 220 230 237 246 254 257 255 251 248 247 252 256 263 273 280 288 293 295 294 290 287 289 290 294 290 282
264 239 237 238 229 221 217 214 210 213 220 221 221 221 220 218 222 227 236 248 256 258 262 262 257 254 251 253 257 262 268 274 280 286 291 292 289 284 283 282 287 285 278
242 229 253 231 209 221 220 214 215 219 227 227 225 223 223 223 226 236 244 251 255 262 264 265 263 259 254 254 257 263 266 271 279 283 286 289 289 282 280 281 281 280 274
236 235 236 231 233 234 223 213 215 223 232 231 227 223 223 224 229 238 244 253 259 261 265 266 265 262 258 256 259 264 268 275 278 280 284 286 283 277 274 275 279 276 266
234 235 231 229 225 215 203 202 209 222 225 225 228 226 225 227 234 242 247 253 260 267 270 270 270 265 261 257 259 263 273 279 279 284 284 283 276 273 272 268 275 274 268
202 197 205 200 195 183 180 184 184 201 207 209 208 212 217 223 234 244 254 261 267 271 272 274 274 271 268 267 266 269 273 279 282 285 283 281 277 270 266 268 272 270 272
181 175 165 174 170 163 166 168 174 190 191 191 186 200 218 231 242 251 258 264 267 271 275 277 279 281 278 273 271 274 274 276 278 283 283 284 281 272 264 259 260 268 268
147 149 151 153 154 151 154 161 173 176 179 191 201 217 228 239 249 257 266 271 272 275 278 279 277 275 273 274 269 269 272 275 276 275 274 270 271 271 265 260 260 265 267
137 139 142 148 146 145 151 154 161 166 178 191 217 238 253 263 269 272 274 277 279 279 279 278 277 276 276 277 275 274 274 274 271 267 269 271 269 266 268 265 263 263 268